Погода Покровская

Погода Покровская : погода сейчас, прогноз погоды и архив. Всё, что Вы хотите узнать о погоде Покровская!

Хотите узнать прогноз погоды Покровская? Тогда Вам сюда: Погода Покровская

Поиск расширенной информации на нашем сайте:

Другие новости

Новости СМИ2

Главная страница сайта

Новости сайта

03.07.2017

Напоминаем, что на нашем специализированном сайте Метеоцентр.Азия вы можете получить высокодетализированные автоматические прогнозы погоды по пунктам России, СНГ и мира в авиационном формате (включающие направление и скорость ветра, видимость, явления погоды, количество и форму облачности, нижнюю и верхнюю границу облачности).


Погода Покровская - сегодня

Время (UTC), дата Ветер
(°,м/с) 
Видим.   Явления Облачность Т
(°С)
Тd
(°С)
f(%) Тe
(°С)
Pmin
(гПа)
dP
(гПа)
Po
(мм)
O2
(г/м3)
Тmin Tmax R s Состояние
почвы
06 16.10.18 030 (СВ) 20000 м    3/0 верхняя 
[Ci fib]
-2.9 -5.9 80 -4  1025.9  -2.1  758  309           
09 16.10.18 010 (С) 20000 м    ясно 
-5.4 -6.8 90 -9  1024.9  -1.2  757  312           
12 16.10.18 030 (СВ) 20000 м    ясно 
-7.7 -8.3 95 -10  1023.6  -1.4  756  314    -2.7       
15 16.10.18 030 (СВ) 20000 м    ясно 
-8.8 -9.5 95 -12  1022.9  -0.6  755  315           
18 16.10.18 060 (СВ) 20000 м    ясно 
-7.9 -9.2 90 -11  1021.8  -1.1  755  314           
21 16.10.18 080 (В) 20000 м    ясно 
-8.8 -9.9 92 -12  1022  0.2  755  315           
00 17.10.18 тихо ()   20000 м    3/0 верхняя 
[Ci fib]
-13.2 -13.8 95 -13  1022.4  0.1  755  321  -13.2      равномерный
сухой снег
100% 
03 17.10.18 320 (СЗ) 20000 м    6/0 средняя 
[Ac trans]
-6.4 -8.8 83 -6  1022.2  0.2  755  312           
06 17.10.18 200 (Ю) 20000 м    10/10 1000 м 
[Sc]
-5.8 -7.6 87 -5  1022.1  -0.1  755  312           
09 17.10.18 060 (СВ) 20000 м    10/10 1000 м 
[Sc]
-4.7 -6.7 86 -4  1021.5  -0.5  755  310           
15 17.10.18 тихо ()   20000 м  слаб. снег  10/10 600 м 
[Ns]
-5.4 -6.1 95 -5  1020.5  -0.4  754  310           
18 17.10.18 270 (З) 20000 м  {снег}  10/10 600 м 
[Sc]
-7.1 -8 93 -7  1020.9  0.4  754  313           
21 17.10.18 260 (З) 20000 м  {снег}  10/10 1000 м 
[Sc]
-5.9 -6.7 94 -6  1021  -0.1  754  311           
03 18.10.18 250 (З) 20000 м    8/3 600 м средняя 
[Sc|Ac trans]
-1.4 -5.4 74 -2  1020.3  -0.2  754  306           
06 18.10.18 220 (ЮЗ) 20000 м    4/4 600 м 
[Sc]
-1 -7.5 61 -2  1019.6  -0.6  754  306           
09 18.10.18 280 (З) 20000 м    ясно 
-5.7 -8.7 79 -7  1020.4  0.5  754  311           
12 18.10.18 280 (З) 20000 м    ясно 
-10.8 -11.4 95 -13  1021.2  0.5  754  317    -0.5       
15 18.10.18 250 (З) 20000 м    ясно 
-14.7 -16 90 -17  1021.3  -0.1  754  322           
18 18.10.18 250 (З) 20000 м    4/4 600 м 
[Sc]
-12.6 -13.9 90 -15  1020.6  -0.6  753  320           
21 18.10.18 250 (З) 20000 м    8/8 600 м 
[Sc]
-9.8 -11.5 87 -10  1019.8  -0.7  753  316           
00 19.10.18 тихо ()   20000 м    10/10 1000 м 
[Sc]
-7.3 -8.2 93 -7  1018.2  -1.4  752  312  -15.7      равномерный
сухой снег
100% 
03 19.10.18 210 (ЮЗ) 20000 м    10/3 1000 м средняя 
[Sc|Ac trans]
-1.9 -7.2 67 -3  1016.2  -1.6  751  305           
06 19.10.18 190 (Ю) 20000 м  слаб. снег  10/0 средняя 
[As op]
-1.2 -5.5 73 -2  1014.8  -1.3  750  304           
09 19.10.18 190 (Ю) 10 км  слаб. снег  10/0 средняя 
[As op]
-1.9 -2.8 94 -1  1014.6  -0.3  749  304           
15 19.10.18 280 (З) 20000 м  {снег}  10/10 600 м 
[Sc]
-4.5 -5.1 96 -6  1015.8  0.7  750  308           
Время (UTC), дата Ветер
(°,м/с) 
Видим.   Явления Облачность Т
(°С)
Тd
(°С)
f(%) Тe
(°С)
Pmin
(гПа)
dP
(гПа)
Po
(мм)
O2
(г/м3)
Тmin Tmax R s Состояние
почвы

Для получения пояснительной информации подведите курсор к названию столбца.

ПОГОДА Покровская - архив

Всё, что Вы хотите узнать о погоде Покровская - удобно и подробно!

Выберите нужную дату (начиная с 1 января 2015* года) и нажмите кнопку "Найти".
Будут отображены архивные сводки погоды по пункту Покровская, начиная с указанной даты.


Отображать данные в формате CSV (для использования в таблицах Excel)


Внимание! Наш архив погоды предназначен исключительно для личного некоммерческого использования в познавательных целях. Если Вам необходимы официальные справки о состоянии погоды (для производственных, юридических, коммерческих и т.п. целей), обращайтесь в органы Росгидромета.

*Примечание: данная дата относится к архиву по метеостанциям СССР (Россия, СНГ, Балтия).
Архив по метеостанциям Зарубежной Европы и Азии (кроме Китая) хранится 10 дней, по другим регионам земного шара (Китай, Африка, Америка, Австралия, Океания) - 1 день.

Покровская - район местоположения метеостанции


Название, широта, долгота, высота метеостанции:
Покровская 61.5°ш. 129.2°д. 115 м над ур. моря [Российская Федерация]

Дополнительная информация

В oтличие oт бoльшинства пoгoдных сайтoв мы публикуем пoдрoбную метеoинфoрмацию в детальнoм прoфессиoнальнoм фoрмате.

Характеристики температуры и влажнoсти вoздуха измеряются на высoте 2 м в тени вдали oт зданий и деревьев.
Скoрoсть ветра измеряется на высoте 10 м (на урoвне рoста челoвека скoрoсть ветра ниже в 1.5-2 раза). Если метеoстанция нахoдится в гoрoде или в лесу, тo скoрoсть ветра занижена на 2-4 м/с пo сравнению с oткрытым местoм. Скoрoсть ветра над акватoриями крупных рек и oзёр, а также на вершинах хoлмoв на 2-5 м/с выше, чем в oбычных услoвиях.
Атмoсфернoе давление в разных тoчках местнoсти мoжет значительнo oтличаться oт давления на метеoстанции, в зависимoсти oт услoвий рельефа (при пoдъёме на 10 м давление пoнижается примернo на 1 мм рт.ст.).